Hourly Data Report for October 23, 2016

All times are specified in Local Standard Time (LST). Add 1 hour to adjust for Daylight Saving Time where and when it is observed.

TORONTO INTL A
ONTARIO

43°40'36.000" N
79°37'50.000" W
173.40 m
6158731
71624
YYZ

Download Data

Hourly Data (October 2016)
Hourly Data Report for October 23, 2016
Temp Definition
°C
Dew Point Temp Definition
°C
Rel Hum Definition
%
Wind Dir Definition
10's deg

Wind Spd Definition
km/h
Visibility Definition
km
Stn Press Definition
kPa
Hmdx Definition


Wind Chill Definition


Weather Definition


TIME
00:00 Legend Double Dagger 3.6 -0.2 76 26 21 24.1 98.94     LegendNANA
01:00 Legend Double Dagger 3.5 0.2 79 26 22 24.1 98.98     Mainly Clear
02:00 Legend Double Dagger 3.2 0.6 83 26 20 24.1 98.99     LegendNANA
03:00 Legend Double Dagger 4.7 0.3 73 28 20 24.1 98.98     LegendNANA
04:00 Legend Double Dagger 5.5 0.3 69 27 23 24.1 99.00     Mostly Cloudy
05:00 Legend Double Dagger 6.1 0.9 69 27 18 24.1 99.05     LegendNANA
06:00 Legend Double Dagger 6.4 0.9 68 27 19 24.1 99.06     LegendNANA
07:00 Legend Double Dagger 5.6 1.2 73 25 18 24.1 99.11     Mainly Clear
08:00 Legend Double Dagger 6.8 1.3 68 27 18 24.1 99.15     LegendNANA
09:00 Legend Double Dagger 8.2 2.5 67 28 22 24.1 99.18     LegendNANA
10:00 Legend Double Dagger 9.2 3.0 65 27 19 24.1 99.18     Mostly Cloudy
11:00 Legend Double Dagger 10.4 4.4 66 27 17 24.1 99.14     LegendNANA
12:00 Legend Double Dagger 11.7 5.8 67 27 19 24.1 99.08     LegendNANA
13:00 Legend Double Dagger 12.7 5.4 61 29 18 24.1 99.02     Mostly Cloudy
14:00 Legend Double Dagger 14.6 5.2 53 25 26 24.1 98.98     LegendNANA
15:00 Legend Double Dagger 14.1 4.5 52 27 24 24.1 98.94     LegendNANA
16:00 Legend Double Dagger 13.5 5.0 56 28 23 24.1 98.93     Mostly Cloudy
17:00 Legend Double Dagger 13.2 4.2 54 28 25 24.1 98.93     LegendNANA
18:00 Legend Double Dagger 12.3 5.1 61 28 17 24.1 98.97     LegendNANA
19:00 Legend Double Dagger 11.7 5.4 65 29 12 24.1 98.99     Mostly Cloudy
20:00 Legend Double Dagger 10.6 5.4 70 32 18 24.1 98.93     LegendNANA
21:00 Legend Double Dagger 10.6 4.8 67 31 18 24.1 98.92     LegendNANA
22:00 Legend Double Dagger 9.4 4.8 73 32 19 24.1 98.91     Mostly Cloudy
23:00 Legend Double Dagger 8.4 4.1 74 29 9 24.1 98.96     LegendNANA

Notes on Data Quality.

Legend

  • E = Estimated
  • M = Missing
  • NA = Not Available
  • ‡ = Partner data that is not subject to review by the National Climate Archives
Date modified: